Galesburg, IL

6:14 AM CDT on May 25, 2017 (GMT -0500)
Galesburg Municipal

Weather History for KGBG - November, 2012

Change the Weather History Date:

Monday, November 5, 2012

  Actual Average Record
Temperature  
Mean Temperature 41 °F -  
Max Temperature 45 °F 50 °F 73 °F (1978)
Min Temperature 37 °F 32 °F 18 °F (1991)
Degree Days  
Heating Degree Days 24    
Moisture  
Dew Point 32 °F    
Average Humidity 70    
Maximum Humidity 83    
Minimum Humidity 56    
Precipitation  
Precipitation 0.00 in - - ()
Sea Level Pressure  
Sea Level Pressure 30.13 in    
Wind  
Wind Speed 4 mph (East)    
Max Wind Speed 12 mph    
Max Gust Speed 17 mph    
Visibility 9 miles    
Events      
Averages and records for this station are not official NWS values.
T = Trace of Precipitation, MM = Missing Value Source: NWS Daily Summary

Daily Weather History Graph

Daily Weather History Graph

Search for Another Location

Airport or City:

Trip Planner

Search our weather history database for the weather conditions in past years. The results will help you decide how hot, cold, wet, or windy it might be!

Date:

Astronomy

Nov. 05, 2012 Rise Set
Actual Time 6:37 AM CST 4:52 PM CST
Civil Twilight 6:08 AM CST 5:21 PM CST
Nautical Twilight 5:36 AM CST 5:53 PM CST
Astronomical Twilight 5:04 AM CST 6:25 PM CST
Moon 10:30 PM CST (11/5) 11:57 AM CST (11/5)
Length of Visible Light 11h 12m
Length of Day
10h 14m
Waning Gibbous, 62% of the Moon is Illuminated
Nov 5
Waning Gibbous
Nov 6
Last Quarter
Nov 13
New
Nov 20
First Quarter
Nov 28
Full

Hourly Weather History & Observations

Time (CST) Temp. Windchill Dew Point Humidity Pressure Visibility Wind Dir Wind Speed Gust Speed Precip Events Conditions
12:15 AM 38.8 °F - 32.0 °F 76% 30.17 in 5.0 mi Calm Calm - N/A   Haze
12:35 AM 38.7 °F - 32.2 °F 78% 30.16 in 5.0 mi Calm Calm - N/A   Light Drizzle
12:55 AM 38.7 °F - 32.4 °F 78% 30.16 in 4.0 mi Calm Calm - N/A   Haze
1:15 AM 38.7 °F - 32.4 °F 78% 30.16 in 5.0 mi Calm Calm - N/A   Haze
1:35 AM 38.7 °F - 32.0 °F 77% 30.16 in 7.0 mi Calm Calm - N/A   Overcast
1:55 AM 38.7 °F - 32.2 °F 78% 30.16 in 4.0 mi Calm Calm - N/A   Haze
2:15 AM 38.5 °F - 32.5 °F 79% 30.16 in 3.0 mi Calm Calm - N/A   Haze
2:35 AM 38.5 °F - 32.5 °F 79% 30.15 in 1.2 mi Calm Calm - N/A   Haze
2:55 AM 38.7 °F - 32.4 °F 78% 30.15 in 4.0 mi Calm Calm - N/A   Haze
3:15 AM 38.7 °F 35.2 °F 32.5 °F 79% 30.14 in 3.0 mi East 4.6 mph - N/A   Haze
3:35 AM 37.9 °F 32.1 °F 32.5 °F 81% 30.14 in 3.0 mi East 8.1 mph - N/A   Haze
3:55 AM 37.6 °F 33.1 °F 32.4 °F 81% 30.14 in 10.0 mi East 5.8 mph - N/A   Overcast
4:15 AM 37.6 °F 35.1 °F 32.4 °F 81% 30.14 in 10.0 mi ESE 3.5 mph - N/A   Overcast
4:35 AM 37.6 °F - 32.9 °F 83% 30.14 in 10.0 mi Calm Calm - N/A   Overcast
4:55 AM 37.6 °F 35.1 °F 32.7 °F 83% 30.14 in 10.0 mi ESE 3.5 mph - N/A   Light Drizzle
5:15 AM 37.6 °F 35.1 °F 32.9 °F 83% 30.13 in 10.0 mi ESE 3.5 mph - N/A   Overcast
5:35 AM 37.8 °F 35.3 °F 32.9 °F 83% 30.13 in 10.0 mi East 3.5 mph - N/A   Overcast
5:55 AM 37.6 °F 34.0 °F 32.5 °F 82% 30.13 in 10.0 mi East 4.6 mph - N/A   Overcast
6:15 AM 37.4 °F 32.1 °F 32.4 °F 82% 30.13 in 10.0 mi East 6.9 mph - N/A   Overcast
6:35 AM 37.4 °F 31.4 °F 32.2 °F 81% 30.13 in 10.0 mi East 8.1 mph - N/A   Overcast
6:55 AM 37.4 °F 33.8 °F 32.4 °F 82% 30.14 in 10.0 mi East 4.6 mph - N/A   Overcast
7:15 AM 37.4 °F 32.8 °F 32.5 °F 83% 30.14 in 10.0 mi East 5.8 mph - N/A   Overcast
7:35 AM 37.8 °F 33.3 °F 32.4 °F 81% 30.14 in 10.0 mi East 5.8 mph - N/A   Overcast
7:55 AM 38.5 °F 33.4 °F 32.4 °F 79% 30.14 in 10.0 mi East 6.9 mph - N/A   Overcast
8:15 AM 39.2 °F 33.6 °F 32.2 °F 76% 30.14 in 10.0 mi East 8.1 mph - N/A   Overcast
8:35 AM 39.4 °F 33.8 °F 32.0 °F 75% 30.15 in 10.0 mi East 8.1 mph - N/A   Overcast
8:55 AM 40.1 °F 34.1 °F 31.8 °F 72% 30.15 in 10.0 mi East 9.2 mph - N/A   Overcast
9:15 AM 41.0 °F 35.2 °F 31.8 °F 70% 30.15 in 10.0 mi East 9.2 mph - N/A   Overcast
9:35 AM 41.4 °F 35.7 °F 31.6 °F 68% 30.16 in 10.0 mi East 9.2 mph - N/A   Overcast
9:55 AM 41.9 °F 35.9 °F 31.3 °F 66% 30.16 in 10.0 mi East 10.4 mph - N/A   Overcast
10:15 AM 42.1 °F 35.7 °F 30.9 °F 65% 30.16 in 10.0 mi ESE 11.5 mph - N/A   Overcast
10:35 AM 42.8 °F 37.0 °F 30.6 °F 62% 30.16 in 10.0 mi ESE 10.4 mph 17.3 mph N/A   Overcast
10:55 AM 43.2 °F 37.4 °F 30.7 °F 62% 30.16 in 10.0 mi ESE 10.4 mph - N/A   Overcast
11:15 AM 43.7 °F 38.1 °F 31.1 °F 61% 30.16 in 10.0 mi East 10.4 mph 16.1 mph N/A   Overcast
11:35 AM 43.9 °F 39.9 °F 31.1 °F 61% 30.15 in 10.0 mi East 6.9 mph - N/A   Overcast
11:55 AM 44.2 °F 39.2 °F 31.1 °F 60% 30.14 in 10.0 mi East 9.2 mph 16.1 mph N/A   Overcast
12:15 PM 44.6 °F 39.7 °F 31.1 °F 59% 30.14 in 10.0 mi ESE 9.2 mph - N/A   Overcast
12:35 PM 44.6 °F 41.4 °F 31.1 °F 59% 30.13 in 10.0 mi SE 5.8 mph - N/A   Overcast
12:55 PM 44.6 °F 40.7 °F 30.2 °F 57% 30.13 in 10.0 mi ESE 6.9 mph - N/A   Overcast
1:15 PM 44.8 °F 39.4 °F 30.4 °F 57% 30.13 in 10.0 mi East 10.4 mph - N/A   Overcast
1:35 PM 45.5 °F 41.3 °F 30.7 °F 56% 30.12 in 10.0 mi East 8.1 mph - N/A   Overcast
1:55 PM 45.1 °F 40.8 °F 30.7 °F 57% 30.12 in 10.0 mi East 8.1 mph - N/A   Overcast
2:15 PM 44.2 °F 41.0 °F 29.5 °F 56% 30.12 in 10.0 mi East 5.8 mph - N/A   Overcast
2:35 PM 44.4 °F 42.0 °F 30.2 °F 57% 30.12 in 10.0 mi East 4.6 mph - N/A   Overcast
2:55 PM 44.1 °F - 30.4 °F 59% 30.12 in 10.0 mi Calm Calm - N/A   Overcast
3:15 PM 44.4 °F - 31.3 °F 60% 30.12 in 10.0 mi Calm Calm - N/A   Overcast
3:35 PM 44.1 °F - 31.1 °F 60% 30.12 in 10.0 mi Calm Calm - N/A   Overcast
3:55 PM 43.9 °F 42.3 °F 31.1 °F 61% 30.12 in 10.0 mi SE 3.5 mph - N/A   Overcast
4:15 PM 43.7 °F - 31.1 °F 61% 30.12 in 10.0 mi Calm Calm - N/A   Overcast
4:35 PM 43.2 °F - 30.9 °F 62% 30.12 in 10.0 mi Calm Calm - N/A   Overcast
4:55 PM 42.8 °F - 31.3 °F 64% 30.12 in 10.0 mi Calm Calm - N/A   Overcast
5:15 PM 42.8 °F - 31.1 °F 63% 30.12 in 10.0 mi Calm Calm - N/A   Overcast
5:35 PM 42.4 °F - 31.1 °F 64% 30.13 in 10.0 mi Calm Calm - N/A   Overcast
5:55 PM 42.1 °F - 31.8 °F 67% 30.13 in 10.0 mi Calm Calm - N/A   Overcast
6:15 PM 42.3 °F - 30.7 °F 64% 30.14 in 10.0 mi Calm Calm - N/A   Overcast
6:35 PM 41.9 °F - 32.0 °F 68% 30.14 in 10.0 mi Calm Calm - N/A   Overcast
6:55 PM 41.2 °F - 32.5 °F 71% 30.14 in 10.0 mi Calm Calm - N/A   Overcast
7:15 PM 41.2 °F - 32.9 °F 72% 30.14 in 10.0 mi Calm Calm - N/A   Overcast
7:35 PM 41.0 °F - 33.6 °F 75% 30.13 in 10.0 mi Calm Calm - N/A   Overcast
7:55 PM 41.4 °F 36.8 °F 32.2 °F 70% 30.12 in 10.0 mi ENE 6.9 mph - N/A   Overcast
8:15 PM 41.2 °F 37.3 °F 31.1 °F 67% 30.13 in 10.0 mi East 5.8 mph - N/A   Overcast
8:35 PM 41.0 °F 35.2 °F 30.4 °F 66% 30.12 in 10.0 mi East 9.2 mph - N/A   Overcast
8:55 PM 40.3 °F 36.3 °F 30.2 °F 67% 30.12 in 10.0 mi East 5.8 mph - N/A   Overcast
9:15 PM 39.7 °F 34.9 °F 30.2 °F 69% 30.12 in 10.0 mi East 6.9 mph - N/A   Overcast
9:35 PM 39.4 °F 34.5 °F 30.4 °F 70% 30.12 in 10.0 mi ESE 6.9 mph - N/A   Overcast
9:55 PM 39.2 °F 35.9 °F 30.4 °F 71% 30.12 in 10.0 mi East 4.6 mph - N/A   Overcast
10:15 PM 39.2 °F 35.9 °F 30.6 °F 71% 30.11 in 10.0 mi East 4.6 mph - N/A   Overcast
10:35 PM 39.2 °F 35.9 °F 30.7 °F 72% 30.11 in 10.0 mi East 4.6 mph - N/A   Overcast
10:55 PM 39.2 °F 35.9 °F 31.1 °F 73% 30.11 in 10.0 mi East 4.6 mph - N/A   Overcast
11:15 PM 39.2 °F 35.9 °F 31.1 °F 73% 30.10 in 10.0 mi East 4.6 mph - N/A   Overcast
11:35 PM 38.8 °F 33.8 °F 31.1 °F 74% 30.09 in 10.0 mi ESE 6.9 mph - N/A   Overcast
11:55 PM 38.7 °F 32.9 °F 31.1 °F 74% 30.09 in 10.0 mi East 8.1 mph - N/A   Overcast